Location: Altleiningen
(49.5078°N, 8.0741°E)
Time: 23:07:05
(UTC+00:00)

SAR-Lupe-4 - Visible Passes

Search period start: 24 June 2021 00:00
Search period end: 04 July 2021 00:00
Orbit: 483 x 483 km, 98.2° (Epoch: 13 April)

Date Brightness Start Highest point End Pass type
(mag) Time Alt. Az. Time Alt. Az. Time Alt. Az.
25 Jun 6.9 20:46:08 10° NNW 20:47:54 13° WNW 20:49:39 10° W visible
26 Jun 6.4 20:20:21 10° NNW 20:23:13 22° WNW 20:26:03 10° WSW visible
29 Jun 6.7 20:39:25 10° NNW 20:41:37 16° WNW 20:43:50 10° W visible
02 Jul 7.1 20:58:59 10° NW 20:59:58 11° WNW 21:00:56 10° WNW visible
03 Jul 6.6 20:32:45 10° NNW 20:35:18 19° WNW 20:37:51 10° WSW visible
